User: anonymous   Login
Location: Radomski Observatory
(40.2854°N, 79.5145°W)
Time: 06:30:04
(UTC-05:00)
Language:

Cosmos 1072 Rocket - Orbit

View from above orbital plane
View from above orbital plane
View from above satellite
View from above satellite

Ground track
Ground track

The orbit data is extracted from the following two-line orbital elements,

1 11239U 79003B   14350.13510468  .00000094  00000-0  80494-4 0  4061
2 11239 082.9386 047.0096 0041846 067.3865 350.5866 13.75755117802171
Epoch (UTC): 16 December 2014 03:14:33
Eccentricity: 0.0041846
inclination: 82.9386°
perigee height: 948 km
apogee height: 1010 km
right ascension of ascending node: 47.0096°
argument of perigee: 67.3865°
revolutions per day: 13.75755117
mean anomaly at epoch: 350.5866°
orbit number at epoch: 80217

The dashed part of the orbit path shows where the satellite is in the earth's shadow,  

DLR